Regional Weather Roundup
Issued by NWS

Home | Current Version | Previous Version | Graphics & Text | Print | Product List | Glossary On
Versions: 1 2 3 4 5 6 7 8 9 10 11 12 13 14 15 16 17 18 19 20 21 22 23 24 25 26 27 28 29 30 31 32 33 34 35 36 37 38 39 40 41 42 43 44 45 46 47 48 49 50
000
ASUS43 KLMK 251210
RWRKY
NATIONAL WEATHER SERVICE LOUISVILLE KY
700 AM EST TUE NOV 25 2014

NOTE "FAIR" INDICATES FEW OR NO CLOUDS BELOW 12,000 FEET
WITH NO SIGNIFICANT WEATHER AND/OR OBSTRUCTIONS TO VISIBILITY.

KYZ001>023-026-027-061>063-070>075-251300-
WESTERN AND SOUTH CENTRAL KENTUCKY

CITY           SKY/WX    TMP DP  RH WIND       PRES   REMARKS
PADUCAH        CLEAR     29  25  85 W6        30.13R WCI  23
HENDERSON      CLEAR     28  23  80 SW5       30.10R WCI  23
OWENSBORO      CLEAR     31  27  85 CALM      30.11R
HOPKINSVILLE   CLEAR     35  28  78 NW5       30.12R WCI  30
BOWLING GREEN  CLEAR     36  29  75 W6        30.10R WCI  31
GLASGOW        CLEAR     31  28  86 CALM      30.09R
$$

KYZ024-025-028>034-038-045-046-053-251300-
NORTH CENTRAL KENTUCKY

CITY           SKY/WX    TMP DP  RH WIND       PRES   REMARKS
LOUISVILLE/SDF MOCLDY    35  29  78 SW3       30.07R
LOUISVILLE/LOU PTCLDY    32  29  88 CALM      30.07R
FORT KNOX      CLEAR     27  26  94 W9        30.06R WCI  18
$$

KYZ035>037-039>044-047>052-055>060-089>105-251300-
NORTHEAST KENTUCKY

CITY           SKY/WX    TMP DP  RH WIND       PRES   REMARKS
LEXINGTON      CLEAR     34  29  82 W5        30.05R WCI  30
COVINGTON      PTCLDY    35  25  66 W7G17     30.03R WCI  29
FRANKFORT      CLEAR     29  27  92 CALM      30.05R
$$

KYZ054-064>069-076>088-106>120-251300-
SOUTHEAST KENTUCKY

CITY           SKY/WX    TMP DP  RH WIND       PRES   REMARKS
JACKSON        CLEAR     39  29  67 SW6       30.05R WCI  35
LONDON         CLEAR     34  28  79 CALM      30.07R
SOMERSET       CLEAR     32  30  93 CALM      30.09R
MIDDLESBORO    PTCLDY    31  30  95 CALM      30.11R
MONTICELLO     SUNNY     25  24  96 CALM      30.11R
$$




USA.gov is the U.S. government's official web portal to all federal, state and local government web resources and services.